AFR344 LFPG-CYUL

Flight info

Callsign AFR344
Flight time N/A
Altitude 30000
Route ATREX DCT VESAN DCT RATUK DCT SOVAT/N0471F360 L613 SANDY DCT OKSAW DCT TEWXI DCT VATRY/N0477F380 DCT DOGAL/M083F390 NATC ELSIR/N0477F400 N412A MIILS DCT TIBOS ROCKT3
Aircraft B772/H-SDE2E3FGHIJ5LORVWXY/LB1D1

Departure

Time 2026-05-07 14:35
Airport Charles de Gaulle International Airport (LFPG)

Arrival

Time N/A
Airport Montreal / Pierre Elliott Trudeau International Airport (CYUL)
Time Latitude Longitude Altitude Speed Heading
2026-05-07 14:06 49.00179 2.56563 359 ft 0 kts 18°
2026-05-07 14:28 49.00158 2.56553 366 ft 4 kts 17°
2026-05-07 14:28 49.00133 2.56538 359 ft 4 kts 34°
2026-05-07 14:29 49.00114 2.56510 364 ft 4 kts 60°
2026-05-07 14:29 49.00107 2.56478 359 ft 1 kts 87°
2026-05-07 14:29 49.00107 2.56477 359 ft 0 kts 87°
2026-05-07 14:31 49.00106 2.56528 359 ft 9 kts 99°
2026-05-07 14:31 49.00044 2.56570 360 ft 12 kts 175°
2026-05-07 14:31 48.99960 2.56584 363 ft 12 kts 174°
2026-05-07 14:31 48.99875 2.56588 359 ft 12 kts 195°
2026-05-07 14:32 48.99826 2.56487 361 ft 12 kts 256°
2026-05-07 14:32 48.99818 2.56358 359 ft 12 kts 266°
2026-05-07 14:32 48.99809 2.56228 359 ft 12 kts 264°
2026-05-07 14:32 48.99801 2.56098 359 ft 12 kts 266°
2026-05-07 14:33 48.99798 2.55965 361 ft 13 kts 270°
2026-05-07 14:33 48.99769 2.55842 366 ft 13 kts 226°
2026-05-07 14:33 48.99686 2.55816 359 ft 13 kts 175°
2026-05-07 14:33 48.99610 2.55864 361 ft 13 kts 116°
2026-05-07 14:34 48.99609 2.55998 363 ft 13 kts 85°
2026-05-07 14:34 48.99630 2.56382 367 ft 71 kts 85°
2026-05-07 14:34 48.99689 2.57497 361 ft 138 kts 85°
2026-05-07 14:34 48.99781 2.59202 522 ft 174 kts 84°
2026-05-07 14:35 48.99890 2.61022 1299 ft 174 kts 83°
2026-05-07 14:35 48.99986 2.62877 2076 ft 177 kts 84°
2026-05-07 14:35 49.00086 2.64877 2413 ft 203 kts 85°
2026-05-07 14:35 49.00203 2.67125 2612 ft 227 kts 85°
2026-05-07 14:36 49.00369 2.69615 2941 ft 241 kts 77°
2026-05-07 14:36 49.01193 2.71838 3388 ft 248 kts 38°
2026-05-07 14:36 49.02769 2.72831 4007 ft 251 kts
2026-05-07 14:36 49.04471 2.72325 4614 ft 251 kts 340°
2026-05-07 14:37 49.06162 2.71467 5068 ft 260 kts 342°
2026-05-07 14:37 49.09654 2.69805 6409 ft 265 kts 342°
2026-05-07 14:37 49.11428 2.68961 6996 ft 268 kts 342°
2026-05-07 14:38 49.13187 2.68124 7618 ft 270 kts 342°
2026-05-07 14:38 49.14988 2.67265 8228 ft 272 kts 342°
2026-05-07 14:38 49.16804 2.66405 8826 ft 274 kts 342°
2026-05-07 14:38 49.18625 2.65542 9403 ft 276 kts 342°
2026-05-07 14:39 49.20469 2.64670 9981 ft 278 kts 342°
2026-05-07 14:39 49.22342 2.63779 10325 ft 288 kts 342°
2026-05-07 14:39 49.24316 2.62836 10452 ft 306 kts 342°
2026-05-07 14:39 49.26384 2.61782 10546 ft 320 kts 334°
2026-05-07 14:40 49.28220 2.59757 10681 ft 331 kts 313°
2026-05-07 14:40 49.29717 2.57027 10764 ft 339 kts 307°
2026-05-07 14:40 49.31236 2.54210 11061 ft 351 kts 310°
2026-05-07 14:40 49.32868 2.51378 11787 ft 355 kts 311°
2026-05-07 14:41 49.34529 2.48580 12682 ft 356 kts 311°
2026-05-07 14:41 49.36213 2.45755 13542 ft 360 kts 311°
2026-05-07 14:41 49.37914 2.42895 14284 ft 364 kts 311°
2026-05-07 14:41 49.39629 2.40004 15008 ft 368 kts 311°
2026-05-07 14:42 49.41362 2.37071 15746 ft 371 kts 311°
2026-05-07 14:42 49.43103 2.34126 16453 ft 375 kts 310°
2026-05-07 14:42 49.44864 2.31143 17142 ft 379 kts 310°
2026-05-07 14:42 49.46647 2.28121 17819 ft 382 kts 310°
2026-05-07 14:43 49.48443 2.25075 18458 ft 386 kts 310°
2026-05-07 14:43 49.50252 2.22002 19026 ft 390 kts 310°
2026-05-07 14:43 49.52080 2.18898 19598 ft 393 kts 310°
2026-05-07 14:43 49.53920 2.15771 20157 ft 396 kts 310°
2026-05-07 14:44 49.55147 2.13683 20500 ft 398 kts 310°
2026-05-07 14:44 49.57016 2.10498 21066 ft 401 kts 310°
2026-05-07 14:44 49.58891 2.07296 21604 ft 404 kts 310°
2026-05-07 14:44 49.61399 2.03015 22305 ft 408 kts 310°
2026-05-07 14:45 49.62691 2.00806 22672 ft 410 kts 310°
2026-05-07 14:45 49.64585 1.97561 23212 ft 413 kts 310°
2026-05-07 14:45 49.66519 1.94243 23709 ft 417 kts 310°
2026-05-07 14:45 49.68463 1.90908 24143 ft 419 kts 310°
2026-05-07 14:46 49.70417 1.87549 24625 ft 422 kts 310°
2026-05-07 14:46 49.72384 1.84162 25070 ft 424 kts 310°
2026-05-07 14:46 49.74359 1.80757 25515 ft 426 kts 310°
2026-05-07 14:46 49.76343 1.77335 25949 ft 428 kts 310°
2026-05-07 14:47 49.78338 1.73887 26373 ft 431 kts 310°
2026-05-07 14:47 49.80343 1.70415 26795 ft 434 kts 310°
2026-05-07 14:47 49.82361 1.66918 27219 ft 435 kts 310°
2026-05-07 14:47 49.84383 1.63404 27629 ft 438 kts 310°
2026-05-07 14:48 49.86415 1.59875 28021 ft 440 kts 310°
2026-05-07 14:48 49.88463 1.56315 28417 ft 443 kts 310°